Home > Time Zones > World Clock > Weather > Japan > Tokyo > Past weeks

Flag for Japan Weather past 2 weeks in Tokyo, Japan

Now
70 °F

Mild.


Feels Like: 62 °F
Forecast: 70 / 80 °F
Wind: 6 mph from Northeast

Location: Tokyo

Current Time: Aug 30, 2015 at 8:54:01 PM

Latest Report: Aug 30, 2015 at 8:00 PM


Visibility: N/A

Pressure: 29.90 "Hg

Humidity: 100%

Dew point: 70 °F

Location of TokyoLocation

Historic Weather in Tokyo — Graph

°F

Tokyo temperature yesterday

Maximum temperature yesterday: 70 °F (at 5:00 PM)
Minimum temperature yesterday: 67 °F (at 5:00 AM)
Average temperature yesterday: 68 °F

Past Weeks' High & Low Weather Summary

 TemperatureHumidityPressure
High90 °F (Aug 22, 2:00 PM)100% (Aug 21, 6:00 PM)29.93 "Hg (Aug 21, 6:00 PM)
Low64 °F (Aug 26, 8:00 AM)54% (Aug 19, 1:00 PM)29.50 "Hg (Aug 22, 3:00 PM)
Average76 °F83%29.80 "Hg
* Reported Aug 15 7:00 PM — Aug 30 7:00 PM, Tokyo, Weather by CustomWeather, © 2015

Note: Actual official high and low records may vary slightly from our data, if they occured in-between our weather recording intervals... More about our weather records

Advertising

Tokyo weather history for previous 24 hours

 ConditionsComfort  
Time TempWeatherWind HumidityBarometerVisibility
7:00 PM
Sun, Aug 30
70 °FMild.5 mph100%29.90 "HgN/A
6:00 PM70 °FLow clouds.5 mph100%29.87 "Hg4 mi
5:00 PM71 °FMild.5 mph100%29.86 "HgN/A
4:00 PM71 °FMild.3 mph98%29.86 "HgN/A
3:00 PM71 °FLight rain. Overcast.1 mph99%29.88 "Hg5 mi
2:00 PM72 °FMild.2 mph96%29.88 "HgN/A
1:00 PM71 °FMild.5 mph97%29.89 "HgN/A
12:00 PM71 °FOvercast.6 mph94%29.90 "Hg6 mi
11:00 AM71 °FMild.5 mph90%29.92 "HgN/A
10:00 AM71 °FMild.2 mph90%29.93 "HgN/A
9:00 AM71 °FOvercast.2 mph90%29.92 "Hg9 mi
8:00 AM70 °FMild.2 mph91%29.91 "HgN/A
7:00 AM70 °FMild.3 mph90%29.92 "HgN/A
6:00 AM70 °FOvercast.5 mph91%29.91 "Hg9 mi
5:00 AM69 °FMild.3 mph97%29.91 "HgN/A
4:00 AM69 °FMild.5 mph95%29.91 "HgN/A
3:00 AM69 °FOvercast.5 mph93%29.89 "Hg9 mi
2:00 AM69 °FMild.3 mph94%29.90 "HgN/A
1:00 AM69 °FMild.5 mph96%29.90 "HgN/A
12:00 AM69 °FMild.5 mph97%29.91 "HgN/A
11:00 PM
Sat, Aug 29
68 °FMild.6 mph99%29.91 "HgN/A
10:00 PM69 °FMild.6 mph98%29.93 "HgN/A
9:00 PM69 °FLight rain. Overcast.6 mph94%29.93 "Hg6 mi
8:00 PM69 °FMild.6 mph93%29.92 "HgN/A
Weather by CustomWeather, © 2015

See weather overviewHow to use our weather pages